Regional Weather Roundup
Issued by NWS

Home | Current Version | Previous Version | Text Only | Print | Product List | Glossary On
Versions: 1 2 3 4 5 6 7 8 9 10 11 12 13 14 15 16 17 18 19 20 21 22 23 24 25 26 27 28 29 30 31 32 33 34 35 36 37 38 39 40 41 42 43 44 45 46 47 48 49 50
000
ASUS45 KBOI 191410
RWRID
WEATHER ROUNDUP FOR IDAHO
NATIONAL WEATHER SERVICE BOISE ID
800 AM MDT FRI SEP 19 2014

NOTE: "FAIR" INDICATES FEW OR NO CLOUDS BELOW 12000 FEET
WITH NO SIGNIFICANT WEATHER AND/OR OBSTRUCTIONS TO VISIBILITY

IDZ012-014-191500-
SOUTHWEST IDAHO


CITY           SKY/WX    TMP DP  RH WIND       PRES   REMARKS
BOISE          CLEAR     57  48  72 CALM      30.05R
CALDWELL       CLEAR     55  43  62 CALM      30.07R
MOUNTAIN HOME  CLEAR     58  48  68 NW13      30.04R
$$

IDZ016-017-191500-
SOUTHCENTRAL IDAHO


CITY           SKY/WX    TMP DP  RH WIND       PRES   REMARKS
BURLEY         CLEAR     55  44  66 SW7       30.06R
JEROME         CLEAR     53  43  68 S7        30.07R
TWIN FALLS     CLEAR     60  42  51 SW13      30.08R
$$

IDZ019>023-191500-
SOUTHEAST IDAHO


CITY           SKY/WX    TMP DP  RH WIND       PRES   REMARKS
IDAHO FALLS    CLEAR     51  48  89 N5        30.07R
POCATELLO      CLEAR     57  46  66 SW15      30.08R
REXBURG        CLEAR     46  43  89 NE3       30.07R
$$

IDZ006-010-011-018-031-032-191500-
CENTRAL IDAHO MOUNTAINS


CITY           SKY/WX    TMP DP  RH WIND       PRES   REMARKS
MCCALL         CLEAR     39  37  92 CALM      30.09R
HAILEY         CLEAR     46  39  76 NW10      30.12R
STANLEY          N/A     31  29  92 CALM      30.18R
SALMON         CLEAR     41  37  87 CALM      30.08R
CHALLIS        CLEAR     45  36  70 CALM      30.09R
$$

IDZ002-004-006-007-026-191500-
NORTHERN IDAHO


CITY           SKY/WX    TMP DP  RH WIND       PRES   REMARKS
LEWISTON       CLEAR     63  48  58 S8        30.01R
LOWELL           N/A     59  55  87 CALM      30.02R
COEUR D`ALENE  CLOUDY    55  48  76 CALM      30.02R
MULLAN PASS    CLOUDY    45  43  93 VRB5      30.09R
$$


USA.gov is the U.S. government's official web portal to all federal, state and local government web resources and services.